Location: Kellogg
(38.0159°N, 90.0546°W)
Time: 11:58:00
(UTC+00:00)

Courier 1B - Pass Details

Date: 12 September 2024
Orbit: 962 x 1208 km, 28.3° (Epoch: 11 October)

Event Time Altitude Azimuth Distance (km) Brightness Sun altitude
Rises 23:50:59 0° 257° (WSW) 4,056 12.7 3.6°
Reaches altitude 10° 23:53:59 10° 251° (WSW) 3,114 11.6 3.0°
Maximum altitude 00:01:07 40° 184° (S) 1,691 8.9 1.6°
Drops below altitude 10° 00:08:19 10° 118° (ESE) 3,129 9.6 0.2°
Sets 00:11:19 0° 111° (ESE) 4,077 10.1 -0.4°
